Weather History for KCNY - April, 2013

Change the Weather History Date:

Sunday, April 14, 2013

  Actual Average Record
Temperature  
Mean Temperature 48 °F 52 °F  
Max Temperature 59 °F 66 °F 87 °F (1962)
Min Temperature 37 °F 37 °F 20 °F (1933)
Degree Days  
Heating Degree Days 17 13  
Month to date heating degree days 205 206  
Since 1 July heating degree days 5713 5254  
Cooling Degree Days 0 0  
Month to date cooling degree days 0 0  
Year to date cooling degree days 0 0  
Moisture  
Dew Point 13 °F    
Average Humidity 36    
Maximum Humidity 60    
Minimum Humidity 12    
Precipitation  
Precipitation T in 0.01 in 0.55 in (1972)
Month to date precipitation 0.14 0.27  
Year to date precipitation 0.83 2.20  
Sea Level Pressure  
Sea Level Pressure 29.61 in    
Wind  
Wind Speed 8 mph (NW)    
Max Wind Speed 20 mph    
Max Gust Speed 26 mph    
Visibility 10 miles    
Events Rain    
T = Trace of Precipitation, MM = Missing Value Source: NWS Daily Summary

Daily Weather History Graph

Daily Weather History Graph

Search for Another Location

Airport or City:

Trip Planner

Search our weather history database for the weather conditions in past years. The results will help you decide how hot, cold, wet, or windy it might be!

Date:

Astronomy

Apr. 14, 2013 Rise Set
Actual Time 6:43 AM MDT 7:55 PM MDT
Civil Twilight 6:16 AM MDT 8:22 PM MDT
Nautical Twilight 5:43 AM MDT 8:55 PM MDT
Astronomical Twilight 5:09 AM MDT 9:30 PM MDT
Moon 9:25 AM MDT (4/14) No Moon Set
Length of Visible Light 14h 06m
Length of Day
13h 11m
Waxing Crescent, 17% of the Moon is Illuminated
Apr 14
Waxing Crescent
Apr 18
First Quarter
Apr 25
Full
May 2
Last Quarter
May 9
New

Hourly Weather History & Observations

Time (MDT) Temp. Windchill Dew Point Humidity Pressure Visibility Wind Dir Wind Speed Gust Speed Precip Events Conditions
12:53 AM 48.9 °F - 39.0 °F 69% 29.52 in 10.0 mi WNW 17.3 mph - 0.00 in Rain Light Rain
1:53 AM 46.9 °F - 37.9 °F 71% 29.56 in 10.0 mi WNW 11.5 mph - 0.00 in   Overcast
2:53 AM 46.0 °F 40.6 °F 34.0 °F 63% 29.55 in 10.0 mi West 11.5 mph - N/A   Overcast
3:53 AM 46.0 °F 39.9 °F 27.0 °F 47% 29.57 in 10.0 mi NW 13.8 mph - N/A   Mostly Cloudy
4:53 AM 42.1 °F 34.2 °F 24.1 °F 49% 29.59 in 10.0 mi NW 16.1 mph - N/A   Mostly Cloudy
5:53 AM 41.0 °F 32.5 °F 16.0 °F 36% 29.63 in 10.0 mi NW 17.3 mph - N/A   Clear
6:53 AM 39.0 °F 32.8 °F 12.9 °F 34% 29.67 in 10.0 mi NW 9.2 mph - N/A   Clear
7:53 AM 42.1 °F 37.1 °F 12.9 °F 31% 29.70 in 10.0 mi WNW 8.1 mph - N/A   Clear
8:53 AM 46.0 °F 41.4 °F 12.0 °F 25% 29.72 in 10.0 mi NW 9.2 mph - N/A   Clear
9:53 AM 48.9 °F - 9.0 °F 20% 29.72 in 10.0 mi NW 12.7 mph - N/A   Clear
10:53 AM 50.0 °F - 8.1 °F 18% 29.72 in 10.0 mi NW 11.5 mph - N/A   Clear
11:53 AM 51.8 °F - 6.8 °F 16% 29.78 in 10.0 mi Variable 5.8 mph - N/A   Clear
12:53 PM 53.1 °F - 6.1 °F 15% 29.71 in 10.0 mi Variable 5.8 mph 17.3 mph N/A   Clear
1:53 PM 53.6 °F - 6.8 °F 15% 29.75 in 10.0 mi NNW 11.5 mph 17.3 mph N/A   Clear
2:53 PM 55.9 °F - 7.0 °F 14% 29.66 in 10.0 mi WNW 11.5 mph 21.9 mph N/A   Clear
3:53 PM 57.9 °F - 7.0 °F 13% 29.62 in 10.0 mi WNW 8.1 mph - N/A   Clear
4:53 PM 57.0 °F - 6.1 °F 13% 29.60 in 10.0 mi WNW 5.8 mph - N/A   Clear
5:53 PM 57.0 °F - 5.0 °F 12% 29.58 in 10.0 mi West 4.6 mph - N/A   Clear
6:53 PM 57.9 °F - 5.0 °F 12% 29.56 in 10.0 mi NE 4.6 mph - N/A   Clear
7:53 PM 53.1 °F - 5.0 °F 14% 29.54 in 10.0 mi NNE 5.8 mph - N/A   Clear
8:53 PM 51.1 °F - 5.0 °F 15% 29.52 in 10.0 mi Calm Calm - N/A   Clear
9:53 PM 48.9 °F - 8.1 °F 19% 29.49 in 10.0 mi Calm Calm - N/A   Clear
10:53 PM 46.0 °F - 6.1 °F 20% 29.48 in 10.0 mi Calm Calm - N/A   Clear
11:53 PM 44.1 °F 39.5 °F 8.1 °F 23% 29.49 in 10.0 mi NNW 8.1 mph - N/A   Partly Cloudy